Location: Fensholt
(55.9856°N, 10.0808°E)
Time: 03:47:47
(UTC+00:00)

Cosmos 1400 Rocket - Pass Details

Date: 01 October 2020
Orbit: 521 x 568 km, 81.2° (Epoch: 21 October)

Event Time Altitude Azimuth Distance (km) Brightness Sun altitude
Exits shadow 21:43:17 11° 13° (NNE) 1,801 5.9 -34.9°
Drops below altitude 10° 21:43:29 10° 13° (NNE) 1,881 6.0 -34.9°
Sets 21:45:42 0° 15° (NNE) 2,784 7.0 -35.1°
